User: anonymous   Login
Location: Trois-Rivi�res
(46.3500°N, 72.5500°W)
Time: 16:02:43
(UTC-05:00)
Language:

Cosmos 1544 - Orbit

View from above orbital plane
View from above orbital plane
View from above satellite
View from above satellite

Ground track
Ground track

The orbit data is extracted from the following two-line orbital elements,

1 14819U 84027A   14351.61788119  .00009500  00000-0  44668-3 0   995
2 14819 082.4878 221.5595 0017461 007.9129 022.6066 15.19315178676875
Epoch (UTC): 17 December 2014 14:49:44
Eccentricity: 0.0017461
inclination: 82.4878°
perigee height: 496 km
apogee height: 520 km
right ascension of ascending node: 221.5595°
argument of perigee: 7.9129°
revolutions per day: 15.19315178
mean anomaly at epoch: 22.6066°
orbit number at epoch: 67687

The dashed part of the orbit path shows where the satellite is in the earth's shadow,  

DLR